Weather History for Rabat-Sale, Morocco

Change the Weather History Date:

Sunday, November 10, 2013

  Actual Average Record
Temperature  
Mean Temperature 58 °F -  
Max Temperature 71 °F 66 °F 80 °F (2006)
Min Temperature 46 °F 49 °F 42 °F (2002)
Degree Days  
Heating Degree Days 6    
Growing Degree Days 8 (Base 50)    
Moisture  
Dew Point 48 °F    
Average Humidity 71    
Maximum Humidity 94    
Minimum Humidity 34    
Precipitation  
Precipitation 0.00 in 0.13 in - ()
Sea Level Pressure  
Sea Level Pressure 30.25 in    
Wind  
Wind Speed 2 mph ()    
Max Wind Speed 12 mph    
Max Gust Speed -    
Visibility 4.5 miles    
Events      
Averages and records for this station are not official NWS values.
T = Trace of Precipitation, MM = Missing Value Source: Averaged Metar Reports

Daily Weather History Graph

Daily Weather History Graph

Search for Another Location

Airport:

Trip Planner

Search our weather history database for the weather conditions in past years. The results will help you decide how hot, cold, wet, or windy it might be!

Date:

Astronomy

Nov. 10, 2013 Rise Set
Actual Time 6:54 AM WET 5:26 PM WET
Civil Twilight 6:28 AM WET 5:52 PM WET
Nautical Twilight 5:58 AM WET 6:22 PM WET
Astronomical Twilight 5:29 AM WET 6:52 PM WET
Moon 1:05 PM WET (11/10) No Moon Set
Length of Visible Light 11h 24m
Length of Day
10h 31m
First Quarter, 53% of the Moon is Illuminated
Nov 10
First Quarter
Nov 17
Full
Nov 25
Last Quarter
Dec 3
New
Dec 9
First Quarter

Hourly Weather History & Observations

Time (WET) Temp. Dew Point Humidity Pressure Visibility Wind Dir Wind Speed Gust Speed Precip Events Conditions
12:00 AM 50 °F 46 °F 79% 30.31 in 4 mi Calm Calm - -   Scattered Clouds
12:00 AM 50.0 °F 46.4 °F 87% 30.30 in 3.7 mi Calm Calm - N/A   Partly Cloudy
12:30 AM 48.2 °F 44.6 °F 87% 30.27 in 3.7 mi Calm Calm - N/A   Partly Cloudy
1:00 AM 50.0 °F 46.4 °F 87% 30.27 in 3.7 mi Calm Calm - N/A   Partly Cloudy
1:30 AM 48.2 °F 44.6 °F 87% 30.27 in 3.7 mi Calm Calm - N/A   Partly Cloudy
2:00 AM 48.2 °F 44.6 °F 87% 30.27 in 3.7 mi Calm Calm - N/A   Partly Cloudy
2:30 AM 48.2 °F 44.6 °F 87% 30.27 in 3.7 mi Calm Calm - N/A   Partly Cloudy
3:00 AM 47 °F 44 °F 86% 30.28 in 4 mi Calm Calm - -   Scattered Clouds
3:00 AM 48.2 °F 44.6 °F 87% 30.27 in 3.7 mi Calm Calm - N/A   Partly Cloudy
3:30 AM 48.2 °F 44.6 °F 87% 30.24 in 3.7 mi Calm Calm - N/A   Partly Cloudy
4:00 AM 48.2 °F 44.6 °F 87% 30.24 in 3.7 mi Calm Calm - N/A   Partly Cloudy
4:30 AM 48.2 °F 44.6 °F 87% 30.24 in 3.7 mi Calm Calm - N/A   Partly Cloudy
5:00 AM 48.2 °F 44.6 °F 87% 30.24 in 3.7 mi Calm Calm - N/A   Partly Cloudy
5:30 AM 48.2 °F 44.6 °F 87% 30.24 in - Calm Calm - N/A   Unknown
6:00 AM 49 °F 46 °F 84% 30.27 in 4 mi Calm Calm - -   Scattered Clouds
6:00 AM 48.2 °F 46.4 °F 93% 30.24 in 3.7 mi Calm Calm - N/A   Partly Cloudy
6:30 AM 48.2 °F 44.6 °F 87% 30.27 in 3.7 mi Calm Calm - N/A   Partly Cloudy
7:00 AM 50.0 °F 46.4 °F 87% 30.27 in 3.7 mi SSE 2.3 mph - N/A   Partly Cloudy
7:30 AM 50.0 °F 46.4 °F 87% 30.27 in 3.7 mi Calm Calm - N/A   Partly Cloudy
8:00 AM 53.6 °F 48.2 °F 82% 30.27 in 5.0 mi Calm Calm - N/A   Partly Cloudy
8:30 AM 57.2 °F 50.0 °F 77% 30.27 in 5.0 mi Calm Calm - N/A   Partly Cloudy
9:00 AM 63 °F 53 °F 60% 30.31 in 5 mi Calm Calm - -   Scattered Clouds
9:00 AM 62.6 °F 51.8 °F 68% 30.30 in 5.0 mi Calm Calm - N/A   Partly Cloudy
9:30 AM 64.4 °F 51.8 °F 64% 30.30 in 5.0 mi Calm Calm - N/A   Partly Cloudy
10:00 AM 64.4 °F 50.0 °F 59% 30.30 in 5.0 mi NE 2.3 mph - N/A   Partly Cloudy
10:30 AM 66.2 °F 50.0 °F 56% 30.30 in 5.0 mi ENE 2.3 mph - N/A   Partly Cloudy
11:00 AM 68.0 °F 50.0 °F 52% 30.30 in 5.0 mi Variable 1.2 mph - N/A   Partly Cloudy
11:30 AM 68.0 °F 50.0 °F 52% 30.27 in 5.0 mi North 4.6 mph - N/A   Partly Cloudy
12:00 PM 70 °F 48 °F 34% 30.27 in 5 mi NNW 9.2 mph - -   Scattered Clouds
12:00 PM 69.8 °F 48.2 °F 46% 30.27 in 5.0 mi NNW 9.2 mph - N/A   Partly Cloudy
12:30 PM 69.8 °F 46.4 °F 43% 30.24 in 5.0 mi North 10.4 mph - N/A   Partly Cloudy
1:00 PM 68.0 °F 46.4 °F 46% 30.24 in 5.0 mi North 11.5 mph - N/A   Partly Cloudy
1:30 PM 69.8 °F 46.4 °F 43% 30.24 in 5.0 mi North 8.1 mph - N/A   Partly Cloudy
2:00 PM 69.8 °F 48.2 °F 46% 30.21 in 6.2 mi NNW 10.4 mph - N/A   Scattered Clouds
2:30 PM 69.8 °F 48.2 °F 46% 30.21 in 6.2 mi North 10.4 mph - N/A   Scattered Clouds
3:00 PM 70 °F 49 °F 36% 30.22 in 6 mi North 10.4 mph - -   Scattered Clouds
3:00 PM 69.8 °F 50.0 °F 49% 30.21 in 6.2 mi North 10.4 mph - N/A   Scattered Clouds
3:30 PM 69.8 °F 50.0 °F 49% 30.21 in 6.2 mi North 11.5 mph - N/A   Scattered Clouds
4:00 PM 68.0 °F 51.8 °F 56% 30.21 in 6.2 mi North 10.4 mph - N/A   Scattered Clouds
4:30 PM 66.2 °F 48.2 °F 52% 30.21 in 6.2 mi North 11.5 mph - N/A   Scattered Clouds
5:00 PM 66.2 °F 50.0 °F 56% 30.21 in 6.2 mi North 9.2 mph - N/A   Scattered Clouds
5:30 PM 62.6 °F 48.2 °F 59% 30.21 in 6.2 mi NNE 6.9 mph - N/A   Scattered Clouds
6:00 PM 61 °F 48 °F 52% 30.24 in 4 mi NE 2.3 mph - -   Scattered Clouds
6:00 PM 60.8 °F 48.2 °F 63% 30.21 in 3.7 mi NE 3.5 mph - N/A   Scattered Clouds
6:30 PM 57.2 °F 48.2 °F 72% 30.24 in 3.7 mi Calm Calm - N/A   Scattered Clouds
7:00 PM 57.2 °F 48.2 °F 72% 30.24 in 3.7 mi Calm Calm - N/A   Scattered Clouds
7:30 PM 57.2 °F 50.0 °F 77% 30.24 in 3.7 mi Calm Calm - N/A   Scattered Clouds
8:00 PM 55.4 °F 50.0 °F 82% 30.21 in 3.7 mi Calm Calm - N/A   Scattered Clouds
8:30 PM 55.4 °F 50.0 °F 82% 30.21 in 3.7 mi Calm Calm - N/A   Scattered Clouds
9:00 PM 55 °F 51 °F 83% 30.24 in 4 mi Calm Calm - -   Scattered Clouds
9:00 PM 55.4 °F 51.8 °F 88% 30.21 in 3.7 mi Calm Calm - N/A   Scattered Clouds
9:30 PM 55.4 °F 51.8 °F 88% 30.21 in 3.7 mi Calm Calm - N/A   Scattered Clouds
10:30 PM 51.8 °F 48.2 °F 88% 30.21 in 3.7 mi Calm Calm - N/A   Scattered Clouds
11:00 PM 53.6 °F 50.0 °F 88% 30.21 in 3.7 mi Calm Calm - N/A   Scattered Clouds
11:30 PM 53.6 °F 51.8 °F 94% 30.21 in 3.7 mi Calm Calm - N/A   Scattered Clouds